Powrót do katalogu

STARLINK-31142

AktywnyŁącznośćVLEO
NORAD 58779·PAYLOAD·🇺🇸 United States

Wystrzelony Jan 14, 2024 z Vandenberg Space Force Base

Loading…

Następne Przeloty (najbliższe 24 godziny)

TLE

ŚwieżeSource: CelesTrak SupGP

Epoka: Sep 15, 2026, 02:54 UTC

1 58779C 24011Q   26258.12131944 -.00007864  00000+0 -23226-3 0  2584
2 58779  53.1581 212.6650 0001255  92.1615  94.4732 15.34403844    16

Śledź STARLINK-31142 w czasie rzeczywistym z AllMySat

Download on the App Store